Wind_Speed
6 7 8 8 8 9 9 9 10 10 9 10 10 10 11 10 10 11 12 12 13 13 13 13 12 12 11 10 10 10 10 10 10 10 9 8 8 8 8 8 8 8 8 7
6 7 7 9 9 9 9 10 10 10 10 10 11 10 10 11 11 11 11 12 12 12 13 13 12 12 11 10 10 10 10 10 10 10 10 9 9 9 8 8 8 8 8 7
7 6 7 8 9 9 10 11 10 9 10 10 11 10 10 11 11 11 12 12 13 13 13 13 12 12 11 11 11 11 11 11 11 11 11 10 10 9 9 9 9 8 8 8
6 7 8 8 8 9 10 10 10 10 10 10 10 10 10 11 11 12 13 13 14 13 13 12 12 12 12 12 12 12 11 11 11 12 11 11 10 9 9 9 9 9 8 8
7 6 7 8 8 9 9 9 9 10 10 9 9 10 10 11 12 12 12 13 13 13 13 12 13 13 13 13 13 12 12 12 11 11 10 10 10 9 9 9 9 9 9 9
7 7 7 7 7 8 8 9 10 10 11 11 9 12 12 12 13 12 12 12 12 12 12 12 13 13 13 13 13 13 13 12 11 11 10 10 10 9 9 9 10 10 10 10
7 6 7 7 7 7 8 9 9 9 10 10 10 13 13 12 12 13 13 13 12 13 13 12 13 13 14 13 13 13 12 12 12 11 11 10 11 10 10 10 10 10 11 11
7 7 7 8 8 8 9 9 9 8 8 9 10 12 13 12 12 12 13 13 13 13 13 13 13 13 13 12 12 13 13 12 12 12 11 11 11 11 10 11 11 11 11 11
8 8 8 9 10 10 9 9 8 8 8 10 9 10 12 12 11 12 12 12 12 12 12 12 13 13 13 13 12 13 12 13 13 13 12 11 11 11 11 11 12 12 12 12
8 9 9 10 10 9 9 9 9 9 9 10 9 9 10 12 12 11 11 11 11 11 11 12 12 12 13 13 14 14 13 13 13 13 12 12 12 12 12 12 12 13 13 13
9 10 10 10 11 10 10 10 10 9 9 10 10 8 9 10 11 11 11 11 11 11 11 11 11 12 12 13 13 13 13 13 13 13 12 12 12 12 13 13 13 14 14 14
10 9 9 9 10 10 11 10 10 10 10 10 12 11 11 11 12 12 11 11 11 11 11 12 12 13 13 13 13 13 13 13 13 12 12 12 13 13 14 14 14 14 14 14
11 10 10 9 10 10 11 11 12 12 11 11 13 12 12 13 13 13 12 12 12 11 12 12 12 13 13 13 13 13 14 13 14 14 14 14 14 14 14 14 15 15 15 15
13 12 13 12 11 11 11 12 13 13 13 13 13 13 13 13 14 13 13 12 12 13 13 13 13 13 13 13 13 13 14 14 14 14 14 15 14 14 15 15 16 16 16 16
15 14 15 15 14 14 13 13 14 15 15 15 14 14 14 14 14 14 14 13 14 14 14 14 14 14 13 14 14 14 14 14 15 15 15 15 15 15 15 16 16 17 17 17
16 15 16 17 16 16 16 15 14 15 16 17 16 15 15 14 14 16 15 15 14 14 14 14 14 14 14 14 14 15 15 15 16 16 16 16 16 16 16 16 17 17 17 18
16 16 17 17 17 17 17 15 16 16 17 18 18 17 16 16 16 16 17 16 16 15 14 14 13 13 14 14 15 15 16 16 16 16 17 17 17 17 17 17 17 17 18 18
17 17 18 17 17 19 16 15 17 18 18 18 19 18 17 17 17 17 17 17 16 15 15 14 13 14 14 14 14 14 15 16 16 16 16 17 17 18 18 18 18 18 18 18
18 18 19 19 19 20 18 16 17 18 18 18 19 19 19 18 18 18 18 17 17 16 15 15 15 15 15 15 15 15 16 16 17 17 16 16 17 18 18 19 18 18 19 19
20 20 20 20 20 21 19 18 18 19 19 18 19 19 19 18 19 18 17 17 16 16 16 16 16 17 16 16 16 17 17 17 17 17 17 17 17 18 19 19 19 19 19 20
21 21 21 22 22 23 20 20 19 21 20 18 19 19 19 18 19 18 18 17 17 16 16 16 16 17 17 17 17 18 18 17 17 17 17 18 18 18 19 19 19 19 20 21
22 22 22 22 23 23 21 21 21 22 21 20 20 19 19 19 19 19 19 18 17 17 17 17 16 17 18 18 19 19 19 19 19 19 19 19 19 20 20 20 21 21 21 22
24 23 23 23 24 22 22 22 23 23 22 22 22 21 20 19 20 20 20 19 18 18 18 18 18 18 18 19 19 19 19 19 19 20 20 20 20 21 21 22 22 22 23 23
26 25 25 25 25 24 24 23 23 24 24 23 23 22 22 21 20 20 21 21 19 19 19 19 20 20 20 20 20 20 21 21 21 21 21 21 21 22 22 23 23 24 24 25
26 27 27 28 26 26 26 26 25 26 25 24 24 23 23 22 21 21 22 22 21 21 21 21 21 22 22 22 22 22 22 22 22 22 23 23 23 23 24 25 25 25 25 26
27 28 28 28 27 28 27 27 27 27 26 25 24 23 23 23 22 22 22 23 23 23 22 22 23 23 23 23 23 23 23 23 23 24 24 24 24 24 25 27 27 28 28 28
Wind_Direction
241 240 235 232 234 238 241 245 247 249 254 260 261 257 247 246 250 254 256 255 254 256 256 252 250 251 253 254 253 256 260 263 265 268 270 273 277 278 276 279 280 286 291 297
244 243 241 237 237 242 245 246 246 252 255 257 258 258 253 251 252 255 258 255 255 256 259 256 253 252 253 254 255 257 261 264 266 269 269 272 274 274 273 274 277 279 281 286
246 245 241 240 243 245 248 250 248 252 256 258 260 257 257 259 261 263 263 263 262 257 258 259 256 252 252 254 259 261 263 264 266 269 271 272 273 271 269 271 273 278 279 280
253 246 244 243 247 248 247 253 252 253 256 256 263 268 261 264 264 263 264 264 263 261 260 259 256 254 254 256 260 263 266 263 265 269 269 270 270 271 269 270 273 276 277 278
252 250 246 246 249 252 249 254 254 255 257 259 263 269 266 267 267 268 267 266 266 265 260 260 260 258 257 259 261 262 263 261 262 267 269 268 269 268 268 267 270 273 274 275
250 252 255 254 256 256 257 256 258 262 259 262 268 268 267 269 269 274 273 268 267 261 257 259 260 259 259 261 261 261 261 259 261 264 265 265 266 268 267 269 272 273 274 276
253 255 260 258 255 251 255 255 257 260 260 266 269 271 270 271 271 273 273 272 268 262 258 261 260 257 258 259 259 260 260 257 258 261 262 262 264 268 268 271 273 273 275 278
255 253 259 261 257 255 256 260 261 266 262 266 267 270 272 274 276 274 272 270 271 267 264 259 258 257 257 258 258 259 257 254 256 258 260 263 265 267 267 270 273 274 276 279
256 253 253 262 262 261 255 257 262 267 270 277 268 271 275 278 274 275 272 270 270 267 264 259 254 256 256 256 257 260 255 254 255 258 261 263 265 267 269 272 276 279 279 279
256 258 256 261 263 264 259 259 258 262 267 269 267 270 274 272 274 278 278 273 272 266 262 260 258 258 257 259 260 257 254 255 258 260 261 263 264 265 268 273 275 278 281 280
259 264 262 259 263 267 255 251 255 260 265 272 268 265 268 274 278 281 280 276 272 266 263 263 265 265 264 261 259 255 255 255 257 260 260 261 264 266 269 274 276 277 278 281
257 260 267 265 265 266 263 256 256 256 254 262 273 274 277 278 278 279 279 276 271 267 266 269 270 269 267 263 256 255 255 254 256 258 258 261 265 267 270 273 274 275 278 280
260 261 270 269 266 261 262 262 260 260 258 258 267 273 276 274 275 276 274 277 273 269 267 268 271 273 270 263 257 256 256 255 258 262 264 265 267 269 270 272 274 276 278 279
257 258 262 264 263 262 261 264 263 258 256 259 264 269 273 273 274 275 274 273 274 273 271 269 272 273 270 262 259 261 258 257 260 263 265 266 268 271 273 274 275 278 278 279
259 260 263 261 258 258 257 260 263 262 261 260 264 266 270 272 275 274 271 271 274 275 274 273 272 271 269 264 261 262 261 260 260 262 264 267 267 270 273 274 276 278 277 277
263 263 264 264 260 257 257 258 261 264 265 263 264 264 265 267 269 272 272 271 273 274 275 273 270 268 267 264 260 260 262 262 260 261 263 267 267 270 274 275 277 279 278 278
260 262 264 265 266 262 263 264 264 264 265 266 266 267 265 263 263 267 271 273 274 274 275 272 271 269 269 265 262 262 263 263 263 264 266 267 267 271 274 277 279 280 280 280
258 260 263 264 265 264 268 264 264 265 266 265 265 267 269 266 263 265 269 271 274 274 271 272 274 271 269 267 264 265 267 267 267 267 266 267 270 272 275 277 279 278 279 280
258 259 260 260 261 266 266 267 267 268 267 266 267 268 269 266 264 265 268 269 270 273 272 273 274 273 271 270 266 266 267 270 268 268 268 268 273 275 276 277 278 277 278 280
262 260 260 260 261 264 266 267 267 268 267 269 267 268 269 264 263 266 269 270 270 271 273 271 271 271 271 270 269 268 269 271 271 271 269 271 274 277 279 280 279 279 281 282
261 261 261 261 262 264 266 267 267 266 267 268 267 267 266 262 263 267 269 270 272 271 271 272 270 270 270 270 270 270 271 270 272 271 271 273 276 278 279 280 280 280 282 284
258 260 261 262 260 262 265 265 265 266 266 266 265 264 265 263 263 265 268 269 270 271 271 271 272 272 270 270 269 270 270 270 271 272 274 275 276 278 279 281 281 282 282 284
254 257 260 260 262 264 264 264 264 265 264 263 262 263 263 262 262 263 264 266 267 268 270 272 273 276 274 271 269 268 270 273 274 274 276 277 277 279 280 281 283 284 285 285
254 255 257 258 259 261 263 263 263 264 263 261 261 261 261 262 261 261 263 263 266 268 268 270 272 275 277 273 271 272 272 273 275 275 275 276 278 279 280 282 282 284 286 286
255 254 256 258 260 260 260 261 261 261 263 261 259 259 260 261 261 262 262 262 264 267 268 270 272 272 275 275 273 271 273 274 275 275 276 277 278 279 280 281 283 284 286 287
254 255 256 258 260 260 260 260 261 261 260 259 257 256 258 260 261 261 262 264 266 267 268 270 271 271 271 273 273 272 273 274 275 276 278 279 279 281 282 283 283 284 286 288
Height
5843 5844 5845 5846 5847 5848 5849 5850 5851 5852 5853 5854 5855 5855 5857 5858 5859 5860 5862 5863 5864 5866 5867 5868 5869 5870 5871 5872 5873 5874 5875 5876 5876 5877 5877 5877 5877 5878 5878 5878 5878 5877 5877 5877
5843 5843 5844 5845 5846 5847 5848 5849 5850 5851 5852 5852 5853 5854 5855 5856 5857 5858 5860 5861 5862 5863 5864 5866 5867 5868 5869 5870 5871 5872 5873 5874 5874 5875 5875 5875 5875 5876 5876 5876 5876 5876 5875 5875
5841 5843 5843 5844 5845 5846 5847 5848 5849 5850 5850 5851 5852 5853 5854 5854 5855 5856 5857 5858 5860 5861 5862 5863 5864 5865 5866 5868 5869 5869 5870 5871 5872 5872 5873 5873 5873 5873 5874 5874 5874 5874 5873 5874
5840 5842 5843 5843 5844 5845 5846 5847 5848 5848 5849 5850 5851 5851 5852 5852 5853 5854 5855 5856 5857 5858 5859 5860 5862 5863 5864 5865 5866 5867 5868 5868 5869 5870 5870 5870 5871 5871 5871 5872 5872 5872 5872 5872
5840 5841 5842 5842 5843 5844 5845 5846 5846 5847 5847 5848 5849 5850 5851 5850 5851 5852 5853 5854 5854 5855 5856 5858 5859 5860 5861 5862 5863 5864 5865 5866 5867 5867 5868 5868 5868 5869 5869 5869 5869 5870 5870 5870
5840 5840 5841 5842 5842 5843 5844 5845 5845 5845 5846 5847 5848 5849 5849 5849 5849 5850 5851 5851 5852 5853 5854 5855 5856 5857 5858 5859 5860 5861 5862 5863 5864 5865 5865 5865 5866 5866 5867 5867 5867 5867 5868 5867
5838 5839 5840 5841 5841 5842 5843 5844 5844 5844 5844 5845 5846 5846 5847 5846 5847 5848 5848 5849 5850 5850 5851 5852 5853 5854 5856 5857 5858 5859 5859 5860 5861 5862 5862 5863 5863 5864 5864 5864 5865 5865 5865 5865
5837 5839 5839 5839 5840 5841 5841 5842 5843 5843 5843 5844 5844 5844 5845 5845 5845 5846 5846 5846 5847 5848 5849 5850 5851 5851 5853 5854 5855 5856 5856 5857 5858 5859 5860 5860 5861 5861 5861 5862 5862 5862 5862 5862
5836 5837 5838 5838 5838 5839 5840 5840 5841 5842 5842 5842 5842 5843 5843 5843 5843 5843 5844 5844 5844 5845 5846 5846 5848 5849 5850 5851 5852 5853 5854 5855 5855 5856 5857 5857 5858 5858 5859 5859 5859 5860 5859 5859
5834 5835 5836 5837 5837 5838 5838 5839 5840 5840 5840 5840 5841 5841 5842 5841 5841 5841 5841 5841 5842 5842 5843 5844 5845 5846 5847 5847 5849 5849 5851 5852 5852 5853 5854 5854 5855 5855 5856 5856 5856 5856 5856 5856
5832 5833 5835 5835 5835 5835 5837 5837 5837 5838 5838 5839 5839 5841 5839 5839 5839 5839 5839 5839 5840 5840 5841 5842 5842 5843 5843 5844 5845 5846 5847 5848 5849 5850 5851 5851 5852 5852 5853 5853 5853 5853 5853 5853
5830 5831 5832 5833 5833 5833 5834 5834 5835 5836 5837 5837 5837 5840 5836 5837 5837 5837 5837 5837 5837 5838 5838 5839 5839 5840 5841 5841 5842 5843 5844 5845 5846 5847 5847 5848 5849 5849 5849 5850 5850 5850 5849 5849
5828 5829 5830 5831 5833 5832 5831 5832 5833 5834 5834 5834 5835 5838 5835 5834 5834 5835 5835 5835 5835 5835 5836 5836 5837 5837 5837 5838 5839 5840 5841 5842 5843 5843 5844 5845 5845 5845 5846 5846 5846 5846 5846 5846
5825 5826 5827 5828 5828 5828 5829 5829 5830 5831 5831 5831 5832 5833 5833 5832 5832 5832 5832 5832 5832 5832 5833 5833 5833 5834 5834 5835 5836 5837 5837 5838 5839 5840 5840 5841 5841 5842 5842 5842 5842 5842 5842 5841
5821 5822 5823 5824 5824 5825 5826 5826 5827 5827 5828 5829 5829 5829 5830 5829 5829 5829 5829 5829 5829 5829 5829 5830 5830 5830 5831 5831 5832 5833 5834 5835 5835 5836 5837 5837 5837 5838 5838 5838 5838 5838 5837 5837
5817 5818 5819 5820 5821 5821 5822 5823 5823 5824 5824 5825 5826 5826 5826 5826 5826 5825 5825 5826 5826 5826 5826 5826 5826 5827 5827 5828 5828 5829 5830 5831 5831 5832 5832 5833 5833 5833 5834 5834 5833 5833 5833 5832
5813 5814 5815 5816 5816 5816 5818 5820 5820 5820 5820 5821 5821 5823 5822 5822 5822 5822 5822 5822 5822 5822 5822 5822 5823 5823 5824 5824 5825 5825 5826 5826 5827 5828 5828 5828 5828 5829 5829 5829 5829 5828 5828 5828
5809 5809 5810 5810 5812 5811 5816 5816 5816 5816 5816 5817 5817 5818 5818 5818 5818 5818 5818 5818 5818 5819 5819 5819 5819 5820 5820 5820 5821 5821 5822 5822 5823 5823 5823 5824 5824 5824 5824 5824 5824 5823 5823 5823
5803 5804 5805 5805 5806 5807 5810 5811 5811 5811 5811 5812 5813 5813 5813 5814 5814 5814 5814 5814 5814 5814 5815 5815 5816 5816 5816 5816 5816 5817 5818 5818 5818 5818 5819 5819 5819 5819 5819 5819 5818 5818 5818 5817
5798 5798 5799 5800 5800 5801 5805 5806 5806 5807 5806 5808 5808 5808 5808 5809 5809 5810 5810 5810 5810 5810 5811 5811 5811 5811 5812 5812 5812 5813 5813 5813 5814 5814 5814 5814 5814 5814 5814 5814 5813 5813 5813 5812
5792 5792 5793 5793 5794 5795 5799 5800 5801 5802 5803 5803 5803 5803 5804 5804 5805 5805 5805 5806 5806 5806 5807 5807 5807 5807 5807 5807 5808 5808 5808 5809 5809 5809 5809 5809 5809 5809 5809 5808 5808 5808 5807 5807
5785 5786 5787 5788 5788 5791 5793 5793 5795 5795 5796 5797 5797 5797 5798 5799 5800 5800 5801 5801 5802 5802 5802 5802 5802 5802 5802 5802 5803 5803 5803 5803 5804 5804 5804 5804 5804 5804 5803 5803 5802 5802 5801 5801
5778 5780 5781 5782 5784 5785 5785 5786 5787 5788 5789 5790 5791 5791 5792 5793 5794 5795 5796 5796 5797 5797 5797 5797 5797 5797 5797 5797 5797 5798 5798 5798 5798 5798 5798 5798 5798 5798 5797 5797 5796 5795 5795 5794
5771 5773 5774 5774 5776 5777 5779 5780 5780 5781 5782 5783 5784 5785 5785 5787 5788 5789 5790 5790 5791 5791 5792 5792 5792 5792 5792 5792 5792 5792 5792 5792 5792 5792 5792 5792 5792 5791 5791 5790 5790 5789 5788 5787
5763 5765 5766 5767 5769 5770 5771 5772 5773 5774 5775 5776 5777 5778 5779 5780 5781 5782 5783 5784 5785 5786 5786 5786 5786 5786 5786 5786 5786 5786 5786 5786 5786 5785 5785 5785 5785 5784 5784 5783 5782 5781 5780 5779
5756 5757 5757 5759 5761 5762 5763 5765 5765 5766 5767 5768 5770 5771 5772 5773 5774 5775 5777 5777 5778 5779 5779 5779 5779 5779 5779 5779 5779 5779 5779 5779 5778 5778 5778 5778 5777 5777 5776 5775 5774 5773 5772 5771